Location: Four Corners
(38.2757°N, 122.4608°W)
Time: 21:00:45
(UTC+00:00)

Cosmos 1666 - Pass Details

Date: 08 December 2019
Orbit: 498 x 521 km, 82.5° (Epoch: 25 January)

Event Time Altitude Azimuth Distance (km) Brightness Sun altitude
Rises 01:43:48 0° 6° (N) 2,604 6.0 -10.5°
Reaches altitude 10° 01:46:14 10° 21° (NNE) 1,712 5.0 -11.0°
Maximum altitude 01:49:19 24° 76° (ENE) 1,075 3.7 -11.6°
Drops below altitude 10° 01:52:22 10° 132° (SE) 1,696 5.0 -12.1°
Sets 01:54:46 0° 146° (SSE) 2,573 6.1 -12.6°
